Hauptseite
METAR-TAF:

METAR-TAF

Flughäfen :

Frontone, Italien

Breite: 43-31N, Länge: 012-44E, Höhe: 570 m

Beobachtung

Neuester Wetterbericht von vor 32 Minuten, um 03:55 UTC
Wind 3 kt aus Ost
Temperatur 14°C
Luftfeuchtigkeit 100%
Luftdruck 1018 hPa
Sichtweite: 0300 m
Nebel

METAR: LIVF 160355Z 10003KT 0300 FG VV/// 14/14 Q1018 RMK MON INVIS VAL INVIS VIS MIN 0300

Zeit: 06:27 (04:27 UTC)


TAF: fehlend

Wetterbeobachtungen und Prognosen von mehr als 4000 Flughäfen (METAR und TAF Bericht).

Die verfügbaren Stationen werden durch gelbe und rote Markierungen auf der Karte dargestellt.

Führen Sie die Maus auf sie, um den Namen der Station zu sehen.

Darauf klicken, um die Beobachtung von Wetterbeobachtungen und Prognosen zu sehen.

Um die Karte zu ändern : klicken Sie auf den grünen Tasten mit einem schwarzen Kreuz Zum Vergrößern, auf den grünen Button mit einem Gedankenstrich zu verkleinern, oder auf die grünen Pfeile für benachbarte Karten.


METAR-TAF: